Portada
METAR-TAF:

METAR-TAF

Aeroports :

Wakkanai, Japó

latitud: 45-24N, longitud: 141-48E, altitud: 8 m

Observació

L'informe es va fer fa 12 hores i 30 minuts, a les 09:00 UTC
Vent 11 kt del Est/Sud-Est
Temperatura 12°C
Humitat 71%
Pressió 999 hPa
Visibilitat 10 km o més
Escasses núvols a una alçada de 4000 ft
Cel ennuvolat a una alçada de 7000 ft
Cel ennuvolat a una alçada de 8000 ft
xàfecs de pluja

METAR: RJCW 050900Z 12011KT 9999 -SHRA FEW040 BKN070 BKN080 12/07 Q0999

Hora: 06:30 (21:30 UTC)


TAF: manca

Observacions i pronòstics meteorològics de més de 4000 aeroports (METAR i TAF).

Les estacions disponibles són els punts grocs i vermells al mapa.

Posi el ratolí al punt desitjat per veure el nom de l'estació.

Feu clic per veure les observacions i els pronòstics meteorològics.

Per canviar el mapa: feu clic els botons verds amb una creu de color negre per apropar; al botó verd amb un guió per allunyar la imatge; o en les fletxes verdes per a mapes adjacents.


METAR-TAF: